,,PA_Meas_PMT16A,,PR_Meas_QMR101_102,,RH_Meas_QMH101,,SR_Meas_QMS101,,TA_Meas_QMH101,,GenWind,,GenWind,
time,status,PA,status,PR,status,RH,status,SR,status,TA,status,DirAvg,status,SpdAvg,
2012-07-18, 00:00:05,VALID,919.287,VALID,0,VALID,97.3739,VALID,0,VALID,18.5748,VALID,141,VALID,0,
2012-07-18, 00:01:05,VALID,919.281,VALID,0,VALID,97.3815,VALID,0,VALID,18.5358,VALID,140,VALID,0,
2012-07-18, 00:02:05,VALID,919.252,VALID,0,VALID,97.3815,VALID,0,VALID,18.5344,VALID,140,VALID,0,
2012-07-18, 00:03:05,VALID,919.215,VALID,0,VALID,97.3968,VALID,0,VALID,18.5553,VALID,140,VALID,0,
2012-07-18, 00:04:05,VALID,919.215,VALID,0,VALID,97.3815,VALID,0,VALID,18.5553,VALID,140,VALID,0,
2012-07-18, 00:05:05,VALID,919.226,VALID,0,VALID,97.3739,VALID,0.107441,VALID,18.5539,VALID,140,VALID,0,
2012-07-18, 00:06:05,VALID,919.198,VALID,0,VALID,97.3891,VALID,0,VALID,18.5344,VALID,140,VALID,0,
2012-07-18, 00:07:05,VALID,919.194,VALID,0,VALID,97.3739,VALID,0,VALID,18.5344,VALID,140,VALID,0,
2012-07-18, 00:08:05,VALID,919.201,VALID,0,VALID,97.3739,VALID,0.107441,VALID,18.5553,VALID,140,VALID,0,
2012-07-18, 00:09:05,VALID,919.18,VALID,0,VALID,97.3739,VALID,0.107441,VALID,18.5344,VALID,140,VALID,0,
2012-07-18, 00:10:05,VALID,919.168,VALID,0,VALID,97.3815,VALID,0.107441,VALID,18.5344,VALID,140,VALID,0,
2012-07-18, 00:11:05,VALID,919.149,VALID,0,VALID,97.3815,VALID,0,VALID,18.5553,VALID,140,VALID,0,
2012-07-18, 00:12:05,VALID,919.15,VALID,0,VALID,97.3663,VALID,0,VALID,18.5553,VALID,140,VALID,0,
2012-07-18, 00:13:05,VALID,919.128,VALID,0,VALID,97.3663,VALID,0,VALID,18.5762,VALID,140,VALID,0,
2012-07-18, 00:14:05,VALID,919.119,VALID,0,VALID,97.351,VALID,0,VALID,18.5358,VALID,140,VALID,0,
2012-07-18, 00:15:05,VALID,919.123,VALID,0,VALID,97.351,VALID,0,VALID,18.5358,VALID,140,VALID,0,
2012-07-18, 00:16:05,VALID,919.085,VALID,0,VALID,97.3281,VALID,0,VALID,18.5567,VALID,140,VALID,0,
2012-07-18, 00:17:05,VALID,919.091,VALID,0,VALID,97.3281,VALID,0,VALID,18.5163,VALID,140,VALID,0,
2012-07-18, 00:18:05,VALID,919.073,VALID,0,VALID,97.2977,VALID,0,VALID,18.5372,VALID,140,VALID,0,
2012-07-18, 00:19:05,VALID,919.045,VALID,0,VALID,97.3053,VALID,0,VALID,18.5567,VALID,140,VALID,0,
2012-07-18, 00:20:05,VALID,919.036,VALID,0,VALID,97.29,VALID,0,VALID,18.5163,VALID,140,VALID,0,
2012-07-18, 00:21:05,VALID,919.02,VALID,0,VALID,97.2824,VALID,0,VALID,18.5163,VALID,140,VALID,0,
2012-07-18, 00:22:05,VALID,919.014,VALID,0,VALID,97.2977,VALID,0,VALID,18.4968,VALID,140,VALID,0,
2012-07-18, 00:23:05,VALID,918.998,VALID,0,VALID,97.29,VALID,0,VALID,18.4968,VALID,140,VALID,0,
2012-07-18, 00:24:05,VALID,918.977,VALID,0,VALID,97.2748,VALID,0,VALID,18.5177,VALID,140,VALID,0,
2012-07-18, 00:25:05,VALID,918.965,VALID,0,VALID,97.2519,VALID,0,VALID,18.4968,VALID,140,VALID,0,
2012-07-18, 00:26:05,VALID,918.962,VALID,0,VALID,97.2672,VALID,0,VALID,18.4773,VALID,140,VALID,0,
2012-07-18, 00:27:05,VALID,918.945,VALID,0,VALID,97.2595,VALID,0,VALID,18.4773,VALID,140,VALID,0,
2012-07-18, 00:28:05,VALID,918.938,VALID,0,VALID,97.2672,VALID,0,VALID,18.4982,VALID,140,VALID,0,
2012-07-18, 00:29:05,VALID,918.909,VALID,0,VALID,97.2672,VALID,0,VALID,18.4982,VALID,139,VALID,0,
2012-07-18, 00:30:05,VALID,918.93,VALID,0,VALID,97.2595,VALID,0,VALID,18.4787,VALID,112,VALID,0,
2012-07-18, 00:31:05,VALID,918.944,VALID,0,VALID,97.2595,VALID,0,VALID,18.4578,VALID,112,VALID,0,
2012-07-18, 00:32:05,VALID,918.927,VALID,0,VALID,97.2672,VALID,0,VALID,18.4787,VALID,112,VALID,0,
2012-07-18, 00:33:05,VALID,918.919,VALID,0,VALID,97.2672,VALID,0,VALID,18.4592,VALID,112,VALID,0,
2012-07-18, 00:34:05,VALID,918.909,VALID,0,VALID,97.2595,VALID,0,VALID,18.4787,VALID,112,VALID,0,
2012-07-18, 00:35:05,VALID,918.89,VALID,0,VALID,97.2824,VALID,0,VALID,18.4982,VALID,112,VALID,0,
2012-07-18, 00:36:05,VALID,918.875,VALID,0,VALID,97.2824,VALID,0,VALID,18.4592,VALID,112,VALID,0,
2012-07-18, 00:37:05,VALID,918.876,VALID,0,VALID,97.2824,VALID,0,VALID,18.4592,VALID,112,VALID,0,
2012-07-18, 00:38:05,VALID,918.872,VALID,0,VALID,97.2595,VALID,0,VALID,18.4982,VALID,112,VALID,0,
2012-07-18, 00:39:05,VALID,918.847,VALID,0,VALID,97.2595,VALID,0,VALID,18.4578,VALID,112,VALID,0,
2012-07-18, 00:40:05,VALID,918.849,VALID,0,VALID,97.2672,VALID,0,VALID,18.4787,VALID,112,VALID,0,
2012-07-18, 00:41:05,VALID,918.824,VALID,0,VALID,97.2443,VALID,0,VALID,18.4564,VALID,112,VALID,0,
2012-07-18, 00:42:05,VALID,918.783,VALID,0,VALID,97.2214,VALID,0,VALID,18.4564,VALID,113,VALID,0,
2012-07-18, 00:43:05,VALID,918.791,VALID,0,VALID,97.2367,VALID,0,VALID,18.4369,VALID,112,VALID,0,
2012-07-18, 00:44:05,VALID,918.762,VALID,0,VALID,97.229,VALID,0.107441,VALID,18.4174,VALID,112,VALID,0,
2012-07-18, 00:45:05,VALID,918.714,VALID,0,VALID,97.2138,VALID,0.107441,VALID,18.5163,VALID,116,VALID,0,
2012-07-18, 00:46:05,VALID,918.694,VALID,0,VALID,97.1604,VALID,0,VALID,18.4773,VALID,116,VALID,0,
2012-07-18, 00:47:05,VALID,918.711,VALID,0,VALID,97.1299,VALID,0,VALID,18.4369,VALID,116,VALID,0,
2012-07-18, 00:48:05,VALID,918.684,VALID,0,VALID,97.1376,VALID,0.107441,VALID,18.4968,VALID,116,VALID,0,
2012-07-18, 00:49:05,VALID,918.657,VALID,0,VALID,97.1833,VALID,0,VALID,18.5163,VALID,116,VALID,0,
2012-07-18, 00:50:05,VALID,918.641,VALID,0,VALID,97.1986,VALID,0,VALID,18.4564,VALID,116,VALID,0,
2012-07-18, 00:51:05,VALID,918.612,VALID,0,VALID,97.1757,VALID,0,VALID,18.4773,VALID,116,VALID,0,
2012-07-18, 00:52:05,VALID,918.632,VALID,0,VALID,97.1452,VALID,0,VALID,18.4968,VALID,116,VALID,0,
2012-07-18, 00:53:05,VALID,918.623,VALID,0,VALID,97.1376,VALID,0.107441,VALID,18.4773,VALID,116,VALID,0,
2012-07-18, 00:54:05,VALID,918.587,VALID,0,VALID,97.1223,VALID,0,VALID,18.5163,VALID,116,VALID,0,
2012-07-18, 00:55:05,VALID,918.574,VALID,0,VALID,97.0994,VALID,0,VALID,18.4968,VALID,116,VALID,0,
2012-07-18, 00:56:05,VALID,918.569,VALID,0,VALID,97.0842,VALID,0.107441,VALID,18.4564,VALID,116,VALID,0,
2012-07-18, 00:57:05,VALID,918.576,VALID,0,VALID,97.0994,VALID,0,VALID,18.4369,VALID,116,VALID,0,
2012-07-18, 00:58:05,VALID,918.583,VALID,0,VALID,97.0918,VALID,0,VALID,18.4578,VALID,116,VALID,0,
2012-07-18, 00:59:05,VALID,918.558,VALID,0,VALID,97.069,VALID,0,VALID,18.4773,VALID,116,VALID,0,
2012-07-18, 01:00:05,VALID,918.556,VALID,0,VALID,97.0766,VALID,0,VALID,18.4188,VALID,116,VALID,0,
2012-07-18, 01:01:05,VALID,918.551,VALID,0,VALID,97.0766,VALID,0,VALID,18.4578,VALID,120,VALID,0,
2012-07-18, 01:02:05,VALID,918.519,VALID,0,VALID,97.0766,VALID,0,VALID,18.4188,VALID,120,VALID,0,
2012-07-18, 01:03:05,VALID,918.542,VALID,0,VALID,97.0994,VALID,0,VALID,18.3979,VALID,120,VALID,0,
2012-07-18, 01:04:05,VALID,918.494,VALID,0,VALID,97.0842,VALID,0,VALID,18.3993,VALID,120,VALID,0,
2012-07-18, 01:05:05,VALID,918.496,VALID,0,VALID,97.0842,VALID,0.107441,VALID,18.3979,VALID,120,VALID,0,
2012-07-18, 01:06:05,VALID,918.49,VALID,0,VALID,97.0842,VALID,0,VALID,18.4202,VALID,120,VALID,0,
2012-07-18, 01:07:05,VALID,918.439,VALID,0,VALID,97.069,VALID,0,VALID,18.4188,VALID,129,VALID,0,
2012-07-18, 01:08:05,VALID,918.446,VALID,0,VALID,97.0308,VALID,0,VALID,18.4007,VALID,129,VALID,0,
2012-07-18, 01:09:05,VALID,918.427,VALID,0,VALID,97.0308,VALID,0,VALID,18.4202,VALID,129,VALID,0,
2012-07-18, 01:10:05,VALID,918.438,VALID,0,VALID,97.0385,VALID,0,VALID,18.4202,VALID,129,VALID,0,
2012-07-18, 01:11:05,VALID,918.406,VALID,0,VALID,97.069,VALID,0,VALID,18.3993,VALID,129,VALID,0,
2012-07-18, 01:12:05,VALID,918.394,VALID,0,VALID,97.0537,VALID,0,VALID,18.4578,VALID,129,VALID,0,
2012-07-18, 01:13:05,VALID,918.353,VALID,0,VALID,97.0461,VALID,0,VALID,18.3993,VALID,129,VALID,0,
2012-07-18, 01:14:05,VALID,918.336,VALID,0,VALID,97.0385,VALID,0,VALID,18.4383,VALID,129,VALID,0,
2012-07-18, 01:15:05,VALID,918.321,VALID,0,VALID,97.0003,VALID,0,VALID,18.3979,VALID,129,VALID,0,
2012-07-18, 01:16:05,VALID,918.302,VALID,0,VALID,96.9622,VALID,0,VALID,18.4174,VALID,129,VALID,0,
2012-07-18, 01:17:05,VALID,918.282,VALID,0,VALID,96.9851,VALID,0,VALID,18.4968,VALID,129,VALID,0,
2012-07-18, 01:18:05,VALID,918.244,VALID,0,VALID,96.9775,VALID,0,VALID,18.4383,VALID,129,VALID,0,
2012-07-18, 01:19:05,VALID,918.227,VALID,0,VALID,96.947,VALID,0,VALID,18.4174,VALID,129,VALID,0,
2012-07-18, 01:20:05,VALID,918.247,VALID,0,VALID,96.9241,VALID,0,VALID,18.3993,VALID,129,VALID,0,
2012-07-18, 01:21:05,VALID,918.231,VALID,0,VALID,96.9012,VALID,0,VALID,18.4383,VALID,129,VALID,0,
2012-07-18, 01:22:05,VALID,918.193,VALID,0,VALID,96.8936,VALID,0.107441,VALID,18.3408,VALID,129,VALID,0,
2012-07-18, 01:23:05,VALID,918.196,VALID,0,VALID,96.8936,VALID,0,VALID,18.3408,VALID,116,VALID,0,
2012-07-18, 01:24:05,VALID,918.179,VALID,0,VALID,96.9165,VALID,0.107441,VALID,18.3199,VALID,116,VALID,0,
2012-07-18, 01:25:05,VALID,918.174,VALID,0,VALID,96.947,VALID,0,VALID,18.3408,VALID,116,VALID,0,
2012-07-18, 01:26:05,VALID,918.17,VALID,0,VALID,96.9165,VALID,0,VALID,18.3798,VALID,116,VALID,0,
2012-07-18, 01:27:05,VALID,918.135,VALID,0,VALID,96.8631,VALID,0,VALID,18.3603,VALID,116,VALID,0,
2012-07-18, 01:28:04,VALID,918.145,VALID,0,VALID,96.8403,VALID,0.107441,VALID,18.3993,VALID,118,VALID,0,
2012-07-18, 01:29:04,VALID,918.09,VALID,0,VALID,96.8403,VALID,0,VALID,18.3993,VALID,118,VALID,0,
2012-07-18, 01:30:04,VALID,918.077,VALID,0,VALID,96.825,VALID,0,VALID,18.3589,VALID,122,VALID,0,
2012-07-18, 01:31:04,VALID,918.067,VALID,0,VALID,96.8098,VALID,0,VALID,18.4188,VALID,131,VALID,0,
2012-07-18, 01:32:04,VALID,918.019,VALID,0,VALID,96.7488,VALID,0,VALID,18.4188,VALID,129,VALID,0,
2012-07-18, 01:33:04,VALID,918.005,VALID,0,VALID,96.7107,VALID,0.107441,VALID,18.3603,VALID,132,VALID,0,
2012-07-18, 01:34:04,VALID,917.987,VALID,0,VALID,96.6802,VALID,0,VALID,18.3408,VALID,109,VALID,0,
2012-07-18, 01:35:04,VALID,917.951,VALID,0,VALID,96.6954,VALID,0,VALID,18.2823,VALID,125,VALID,0,
2012-07-18, 01:36:04,VALID,917.952,VALID,0,VALID,96.7183,VALID,0.107441,VALID,18.3018,VALID,123,VALID,0,
2012-07-18, 01:37:04,VALID,917.934,VALID,0,VALID,96.7259,VALID,0,VALID,18.3213,VALID,117,VALID,0,
2012-07-18, 01:38:04,VALID,917.951,VALID,0,VALID,96.7488,VALID,0,VALID,18.3408,VALID,123,VALID,0,
2012-07-18, 01:39:04,VALID,917.934,VALID,0,VALID,96.7488,VALID,0,VALID,18.3213,VALID,125,VALID,0,
2012-07-18, 01:40:04,VALID,917.931,VALID,0,VALID,96.7411,VALID,0,VALID,18.2823,VALID,125,VALID,0,
2012-07-18, 01:41:04,VALID,917.904,VALID,0,VALID,96.7411,VALID,0.107441,VALID,18.3018,VALID,125,VALID,0,
2012-07-18, 01:42:04,VALID,917.889,VALID,0,VALID,96.764,VALID,0,VALID,18.2809,VALID,125,VALID,0,
2012-07-18, 01:43:04,VALID,917.876,VALID,0,VALID,96.764,VALID,0,VALID,18.2823,VALID,125,VALID,0,
2012-07-18, 01:44:04,VALID,917.88,VALID,0,VALID,96.7945,VALID,0,VALID,18.2823,VALID,125,VALID,0,
2012-07-18, 01:45:04,VALID,917.892,VALID,0,VALID,96.7869,VALID,0,VALID,18.2433,VALID,125,VALID,0,
2012-07-18, 01:46:04,VALID,917.857,VALID,0,VALID,96.8174,VALID,0,VALID,18.2433,VALID,125,VALID,0,
2012-07-18, 01:47:04,VALID,917.852,VALID,0,VALID,96.8326,VALID,0,VALID,18.2044,VALID,110,VALID,0,
2012-07-18, 01:48:04,VALID,917.835,VALID,0,VALID,96.8555,VALID,0,VALID,18.2044,VALID,110,VALID,0,
2012-07-18, 01:49:04,VALID,917.819,VALID,0,VALID,96.9165,VALID,0,VALID,18.1849,VALID,123,VALID,0,
2012-07-18, 01:50:04,VALID,917.795,VALID,0,VALID,96.9241,VALID,0.107441,VALID,18.1849,VALID,122,VALID,0,
2012-07-18, 01:51:04,VALID,917.752,VALID,0,VALID,96.9622,VALID,0.107441,VALID,18.1835,VALID,122,VALID,0,
2012-07-18, 01:52:04,VALID,917.719,VALID,0,VALID,96.9698,VALID,0,VALID,18.1849,VALID,120,VALID,0,
2012-07-18, 01:53:04,VALID,917.748,VALID,0,VALID,96.9775,VALID,0,VALID,18.1849,VALID,120,VALID,0,
2012-07-18, 01:54:04,VALID,917.719,VALID,0,VALID,97.0003,VALID,0,VALID,18.1654,VALID,120,VALID,0,
2012-07-18, 01:55:04,VALID,917.747,VALID,0,VALID,97.0232,VALID,0,VALID,18.2433,VALID,120,VALID,0,
2012-07-18, 01:56:04,VALID,917.692,VALID,0,VALID,97.0308,VALID,0,VALID,18.2044,VALID,120,VALID,0,
2012-07-18, 01:57:04,VALID,917.706,VALID,0,VALID,97.0461,VALID,0,VALID,18.1849,VALID,120,VALID,0,
2012-07-18, 01:58:04,VALID,917.665,VALID,0,VALID,97.0461,VALID,0,VALID,18.1654,VALID,133,VALID,0,
2012-07-18, 01:59:04,VALID,917.643,VALID,0,VALID,97.0537,VALID,0,VALID,18.1862,VALID,127,VALID,0,
2012-07-18, 02:00:04,VALID,917.628,VALID,0,VALID,97.0613,VALID,0,VALID,18.1654,VALID,127,VALID,0,
2012-07-18, 02:01:04,VALID,917.621,VALID,0,VALID,97.0613,VALID,0,VALID,18.1445,VALID,127,VALID,0,
2012-07-18, 02:02:04,VALID,917.601,VALID,0,VALID,97.0156,VALID,0.107441,VALID,18.1654,VALID,127,VALID,0,
2012-07-18, 02:03:04,VALID,917.601,VALID,0,VALID,97.0003,VALID,0,VALID,18.1459,VALID,127,VALID,0,
2012-07-18, 02:04:04,VALID,917.58,VALID,0,VALID,97.0156,VALID,0,VALID,18.1654,VALID,128,VALID,0,
2012-07-18, 02:05:04,VALID,917.543,VALID,0,VALID,97.0003,VALID,0,VALID,18.1849,VALID,127,VALID,0,
2012-07-18, 02:06:04,VALID,917.536,VALID,0,VALID,96.9698,VALID,0,VALID,18.1459,VALID,127,VALID,0,
2012-07-18, 02:07:04,VALID,917.521,VALID,0,VALID,96.9775,VALID,0,VALID,18.1654,VALID,127,VALID,0,
2012-07-18, 02:08:04,VALID,917.497,VALID,0,VALID,96.9546,VALID,0,VALID,18.1654,VALID,127,VALID,0,
2012-07-18, 02:09:04,VALID,917.494,VALID,0,VALID,96.9394,VALID,0,VALID,18.1264,VALID,128,VALID,0,
2012-07-18, 02:10:04,VALID,917.444,VALID,0,VALID,96.9165,VALID,0,VALID,18.1459,VALID,127,VALID,0,
2012-07-18, 02:11:04,VALID,917.445,VALID,0,VALID,96.947,VALID,0,VALID,18.1069,VALID,136,VALID,0,
2012-07-18, 02:12:04,VALID,917.429,VALID,0,VALID,96.9775,VALID,0,VALID,18.1264,VALID,136,VALID,0,
2012-07-18, 02:13:04,VALID,917.406,VALID,0,VALID,96.947,VALID,0.107441,VALID,18.1654,VALID,136,VALID,0,
2012-07-18, 02:14:04,VALID,917.385,VALID,0,VALID,96.9241,VALID,0,VALID,18.1069,VALID,137,VALID,0,
2012-07-18, 02:15:04,VALID,917.368,VALID,0,VALID,96.9317,VALID,0,VALID,18.1069,VALID,135,VALID,0,
2012-07-18, 02:16:04,VALID,917.359,VALID,0,VALID,96.9394,VALID,0,VALID,18.0679,VALID,124,VALID,0,
2012-07-18, 02:17:04,VALID,917.345,VALID,0,VALID,96.9241,VALID,0,VALID,18.0679,VALID,136,VALID,0,
2012-07-18, 02:18:04,VALID,917.315,VALID,0,VALID,96.947,VALID,0,VALID,18.0289,VALID,135,VALID,0,
2012-07-18, 02:19:04,VALID,917.305,VALID,0,VALID,96.9546,VALID,0,VALID,18.0289,VALID,129,VALID,0,
2012-07-18, 02:20:04,VALID,917.281,VALID,0,VALID,96.9622,VALID,0,VALID,18.0289,VALID,130,VALID,0,
2012-07-18, 02:21:04,VALID,917.294,VALID,0,VALID,96.9622,VALID,0,VALID,18.0094,VALID,130,VALID,0,
2012-07-18, 02:22:04,VALID,917.257,VALID,0,VALID,96.9927,VALID,0,VALID,18.0094,VALID,130,VALID,0,
2012-07-18, 02:23:04,VALID,917.247,VALID,0,VALID,97.0308,VALID,0,VALID,18.0094,VALID,130,VALID,0,
2012-07-18, 02:24:04,VALID,917.236,VALID,0,VALID,97.0461,VALID,0,VALID,17.9899,VALID,130,VALID,0,
2012-07-18, 02:25:04,VALID,917.243,VALID,0,VALID,97.0385,VALID,0,VALID,18.0303,VALID,130,VALID,0,
2012-07-18, 02:26:04,VALID,917.228,VALID,0,VALID,97.0613,VALID,0,VALID,18.0094,VALID,130,VALID,0,
2012-07-18, 02:27:04,VALID,917.247,VALID,0,VALID,97.069,VALID,0,VALID,17.9899,VALID,130,VALID,0,
2012-07-18, 02:28:04,VALID,917.211,VALID,0,VALID,97.0766,VALID,0,VALID,18.0289,VALID,131,VALID,0,
2012-07-18, 02:29:04,VALID,917.209,VALID,0,VALID,97.0842,VALID,0,VALID,17.9899,VALID,132,VALID,0,
2012-07-18, 02:30:04,VALID,917.204,VALID,0,VALID,97.0537,VALID,0,VALID,18.0289,VALID,127,VALID,0,
2012-07-18, 02:31:04,VALID,917.198,VALID,0,VALID,97.0613,VALID,0,VALID,17.9899,VALID,105,VALID,0,
2012-07-18, 02:32:04,VALID,917.21,VALID,0,VALID,97.0385,VALID,0,VALID,18.0289,VALID,114,VALID,0,
2012-07-18, 02:33:04,VALID,917.177,VALID,0,VALID,97.0003,VALID,0,VALID,18.0484,VALID,114,VALID,0,
2012-07-18, 02:34:04,VALID,917.156,VALID,0,VALID,97.0003,VALID,0,VALID,18.0094,VALID,114,VALID,0,
2012-07-18, 02:35:04,VALID,917.147,VALID,0,VALID,97.0156,VALID,0,VALID,17.9899,VALID,115,VALID,0,
2012-07-18, 02:36:04,VALID,917.127,VALID,0,VALID,97.0003,VALID,0,VALID,18.0679,VALID,122,VALID,0,
2012-07-18, 02:37:04,VALID,917.107,VALID,0,VALID,96.9927,VALID,0,VALID,18.0094,VALID,125,VALID,0,
2012-07-18, 02:38:04,VALID,917.104,VALID,0,VALID,96.9927,VALID,0,VALID,18.0484,VALID,124,VALID,0,
2012-07-18, 02:39:04,VALID,917.076,VALID,0,VALID,96.9698,VALID,0,VALID,18.0498,VALID,121,VALID,0,
2012-07-18, 02:40:04,VALID,917.068,VALID,0,VALID,96.947,VALID,0,VALID,18.0679,VALID,121,VALID,0,
2012-07-18, 02:41:04,VALID,917.055,VALID,0,VALID,96.9546,VALID,0,VALID,18.0679,VALID,121,VALID,0,
2012-07-18, 02:42:04,VALID,917.031,VALID,0,VALID,96.9851,VALID,0,VALID,18.0094,VALID,121,VALID,0,
2012-07-18, 02:43:04,VALID,917.049,VALID,0,VALID,96.9851,VALID,0,VALID,18.0484,VALID,117,VALID,0,
2012-07-18, 02:44:04,VALID,917.026,VALID,0,VALID,96.9546,VALID,0,VALID,18.0289,VALID,111,VALID,0,
2012-07-18, 02:45:04,VALID,917.017,VALID,0,VALID,96.9546,VALID,0,VALID,18.0679,VALID,111,VALID,0,
2012-07-18, 02:46:04,VALID,916.969,VALID,0,VALID,96.9775,VALID,0,VALID,18.0679,VALID,121,VALID,0,
2012-07-18, 02:47:04,VALID,916.979,VALID,0,VALID,96.9546,VALID,0,VALID,17.9913,VALID,121,VALID,0,
2012-07-18, 02:48:04,VALID,916.946,VALID,0,VALID,96.947,VALID,0.107441,VALID,18.0289,VALID,121,VALID,0,
2012-07-18, 02:49:04,VALID,916.919,VALID,0,VALID,96.947,VALID,0,VALID,18.0679,VALID,121,VALID,0,
2012-07-18, 02:50:04,VALID,916.92,VALID,0,VALID,96.9089,VALID,0,VALID,18.0275,VALID,121,VALID,0,
2012-07-18, 02:51:04,VALID,916.922,VALID,0,VALID,96.9165,VALID,0,VALID,18.0484,VALID,121,VALID,0,
2012-07-18, 02:52:04,VALID,916.912,VALID,0,VALID,96.8936,VALID,0,VALID,18.0275,VALID,109,VALID,0,
2012-07-18, 02:53:04,VALID,916.895,VALID,0,VALID,96.8784,VALID,0,VALID,18.0289,VALID,105,VALID,0,
2012-07-18, 02:54:04,VALID,916.891,VALID,0,VALID,96.8784,VALID,0,VALID,18.0874,VALID,105,VALID,0,
2012-07-18, 02:55:04,VALID,916.883,VALID,0,VALID,96.8555,VALID,0.107441,VALID,18.0679,VALID,105,VALID,0,
2012-07-18, 02:56:04,VALID,916.858,VALID,0,VALID,96.8555,VALID,0,VALID,18.1069,VALID,114,VALID,0,
2012-07-18, 02:57:04,VALID,916.872,VALID,0,VALID,96.8326,VALID,0,VALID,18.0289,VALID,120,VALID,0,
2012-07-18, 02:58:04,VALID,916.853,VALID,0,VALID,96.8326,VALID,0,VALID,18.0679,VALID,120,VALID,0,
2012-07-18, 02:59:04,VALID,916.815,VALID,0,VALID,96.825,VALID,0.107441,VALID,18.008,VALID,98,VALID,0,
2012-07-18, 03:00:04,VALID,916.803,VALID,0,VALID,96.825,VALID,0,VALID,18.0679,VALID,128,VALID,0,
2012-07-18, 03:01:04,VALID,916.794,VALID,0,VALID,96.8174,VALID,0.107441,VALID,18.0484,VALID,120,VALID,0,
2012-07-18, 03:02:04,VALID,916.79,VALID,0,VALID,96.8021,VALID,0,VALID,18.0289,VALID,122,VALID,0,
2012-07-18, 03:03:04,VALID,916.764,VALID,0,VALID,96.8174,VALID,0,VALID,18.0484,VALID,112,VALID,0,
2012-07-18, 03:04:04,VALID,916.756,VALID,0,VALID,96.7945,VALID,0.107441,VALID,18.0289,VALID,108,VALID,0,
2012-07-18, 03:05:04,VALID,916.734,VALID,0,VALID,96.7793,VALID,0,VALID,18.0289,VALID,108,VALID,0,
2012-07-18, 03:06:04,VALID,916.729,VALID,0,VALID,96.7945,VALID,0,VALID,18.0094,VALID,109,VALID,0,
2012-07-18, 03:07:04,VALID,916.701,VALID,0,VALID,96.7716,VALID,0,VALID,18.0094,VALID,109,VALID,0,
2012-07-18, 03:08:04,VALID,916.699,VALID,0,VALID,96.7793,VALID,0,VALID,18.0289,VALID,108,VALID,0,
2012-07-18, 03:09:04,VALID,916.71,VALID,0,VALID,96.7945,VALID,0.107441,VALID,17.9691,VALID,109,VALID,0,
2012-07-18, 03:10:04,VALID,916.681,VALID,0,VALID,96.8174,VALID,0.107441,VALID,18.0094,VALID,109,VALID,0,
2012-07-18, 03:11:04,VALID,916.666,VALID,0,VALID,96.8098,VALID,0,VALID,17.9899,VALID,109,VALID,0,
2012-07-18, 03:12:04,VALID,916.672,VALID,0,VALID,96.8479,VALID,0,VALID,18.0094,VALID,109,VALID,0,
2012-07-18, 03:13:04,VALID,916.649,VALID,0,VALID,96.825,VALID,0,VALID,17.9704,VALID,109,VALID,0,
2012-07-18, 03:14:04,VALID,916.664,VALID,0,VALID,96.8555,VALID,0,VALID,17.9301,VALID,109,VALID,0,
2012-07-18, 03:15:04,VALID,916.658,VALID,0,VALID,96.8326,VALID,0.107441,VALID,17.9704,VALID,109,VALID,0,
2012-07-18, 03:16:04,VALID,916.633,VALID,0,VALID,96.825,VALID,0,VALID,17.9704,VALID,109,VALID,0,
2012-07-18, 03:17:04,VALID,916.634,VALID,0,VALID,96.8479,VALID,0.107441,VALID,17.9704,VALID,109,VALID,0,
2012-07-18, 03:18:04,VALID,916.637,VALID,0,VALID,96.8479,VALID,0,VALID,17.9509,VALID,109,VALID,0,
2012-07-18, 03:19:04,VALID,916.617,VALID,0,VALID,96.825,VALID,0,VALID,17.9509,VALID,109,VALID,0,
2012-07-18, 03:20:04,VALID,916.608,VALID,0,VALID,96.7793,VALID,0,VALID,17.9509,VALID,109,VALID,0,
2012-07-18, 03:21:04,VALID,916.561,VALID,0,VALID,96.7716,VALID,0,VALID,17.9913,VALID,109,VALID,0,
2012-07-18, 03:22:04,VALID,916.557,VALID,0,VALID,96.7411,VALID,0,VALID,17.9509,VALID,113,VALID,0,
2012-07-18, 03:23:04,VALID,916.547,VALID,0,VALID,96.7411,VALID,0,VALID,17.9704,VALID,117,VALID,0,
2012-07-18, 03:24:04,VALID,916.515,VALID,0,VALID,96.7259,VALID,0,VALID,17.9509,VALID,118,VALID,0,
2012-07-18, 03:25:04,VALID,916.527,VALID,0,VALID,96.7259,VALID,0,VALID,17.9704,VALID,118,VALID,0,
2012-07-18, 03:26:04,VALID,916.513,VALID,0,VALID,96.7107,VALID,0,VALID,17.9314,VALID,118,VALID,0,
2012-07-18, 03:27:04,VALID,916.498,VALID,0,VALID,96.6725,VALID,0,VALID,17.9899,VALID,137,VALID,0,
2012-07-18, 03:28:04,VALID,916.473,VALID,0,VALID,96.6878,VALID,0,VALID,18.0094,VALID,137,VALID,0,
2012-07-18, 03:29:04,VALID,916.462,VALID,0,VALID,96.6649,VALID,0.107441,VALID,18.0289,VALID,137,VALID,0,
2012-07-18, 03:30:04,VALID,916.442,VALID,0,VALID,96.6344,VALID,0.107441,VALID,18.0094,VALID,137,VALID,0,
2012-07-18, 03:31:04,VALID,916.446,VALID,0,VALID,96.6192,VALID,0,VALID,18.0094,VALID,137,VALID,0,
2012-07-18, 03:32:04,VALID,916.437,VALID,0,VALID,96.6039,VALID,0,VALID,17.9899,VALID,137,VALID,0,
2012-07-18, 03:33:04,VALID,916.447,VALID,0,VALID,96.5811,VALID,0,VALID,18.0289,VALID,137,VALID,0,
2012-07-18, 03:34:04,VALID,916.434,VALID,0,VALID,96.5811,VALID,0,VALID,18.0094,VALID,137,VALID,0,
2012-07-18, 03:35:04,VALID,916.445,VALID,0,VALID,96.5201,VALID,0,VALID,18.0289,VALID,137,VALID,0,
2012-07-18, 03:36:04,VALID,916.459,VALID,0,VALID,96.5353,VALID,0,VALID,17.9704,VALID,131,VALID,0,
2012-07-18, 03:37:04,VALID,916.463,VALID,0,VALID,96.5201,VALID,0,VALID,17.9704,VALID,130,VALID,0,
2012-07-18, 03:38:04,VALID,916.441,VALID,0,VALID,96.4972,VALID,0,VALID,18.0289,VALID,130,VALID,0,
2012-07-18, 03:39:04,VALID,916.432,VALID,0,VALID,96.5048,VALID,0,VALID,18.0484,VALID,130,VALID,0,
2012-07-18, 03:40:04,VALID,916.444,VALID,0,VALID,96.4819,VALID,0,VALID,17.9704,VALID,130,VALID,0,
2012-07-18, 03:41:04,VALID,916.441,VALID,0,VALID,96.4743,VALID,0,VALID,18.0303,VALID,123,VALID,0,
2012-07-18, 03:42:04,VALID,916.433,VALID,0,VALID,96.4819,VALID,0,VALID,17.9913,VALID,129,VALID,0,
2012-07-18, 03:43:04,VALID,916.44,VALID,0,VALID,96.4286,VALID,0,VALID,17.9913,VALID,124,VALID,0,
2012-07-18, 03:44:04,VALID,916.412,VALID,0,VALID,96.421,VALID,0,VALID,17.9913,VALID,128,VALID,0,
2012-07-18, 03:45:04,VALID,916.411,VALID,0,VALID,96.3905,VALID,0,VALID,18.0108,VALID,126,VALID,0,
2012-07-18, 03:46:04,VALID,916.412,VALID,0,VALID,96.3829,VALID,0,VALID,18.0108,VALID,123,VALID,0,
2012-07-18, 03:47:04,VALID,916.406,VALID,0,VALID,96.3676,VALID,0,VALID,18.0108,VALID,132,VALID,0,
2012-07-18, 03:48:04,VALID,916.395,VALID,0,VALID,96.3752,VALID,0,VALID,18.0108,VALID,118,VALID,0,
2012-07-18, 03:49:04,VALID,916.407,VALID,0,VALID,96.3752,VALID,0,VALID,18.0303,VALID,115,VALID,0,
2012-07-18, 03:50:04,VALID,916.444,VALID,0,VALID,96.3905,VALID,0,VALID,17.9913,VALID,113,VALID,0,
2012-07-18, 03:51:04,VALID,916.422,VALID,0,VALID,96.4133,VALID,0,VALID,17.9913,VALID,113,VALID,0,
2012-07-18, 03:52:04,VALID,916.424,VALID,0,VALID,96.421,VALID,0,VALID,18.0108,VALID,113,VALID,0,
2012-07-18, 03:53:04,VALID,916.434,VALID,0,VALID,96.4515,VALID,0,VALID,18.0108,VALID,122,VALID,0,
2012-07-18, 03:54:04,VALID,916.466,VALID,0,VALID,96.4896,VALID,0,VALID,18.0108,VALID,110,VALID,0,
2012-07-18, 03:55:04,VALID,916.456,VALID,0,VALID,96.5048,VALID,0,VALID,17.9718,VALID,111,VALID,0,
2012-07-18, 03:56:04,VALID,916.448,VALID,0,VALID,96.5124,VALID,0.107441,VALID,17.9704,VALID,116,VALID,0,
2012-07-18, 03:57:04,VALID,916.447,VALID,0,VALID,96.4972,VALID,0.107441,VALID,17.9899,VALID,121,VALID,0,